Location: Quartzsite
(33.6639°N, 114.2299°W)
Time: 05:33:24
(UTC-07:00)

Hubble Space Telescope - Visible Passes

Search period start: 25 May 2018 00:00
Search period end: 04 June 2018 00:00
Orbit: 537 x 541 km, 28.5° (Epoch: 24 May)

Date Brightness Start Highest point End Pass type
(mag) Time Alt. Az. Time Alt. Az. Time Alt. Az.
25 May 3.1 04:45:33 10° S 04:47:27 13° SSE 04:49:20 10° SE visible
26 May 2.8 04:34:28 10° SSW 04:37:01 16° SSE 04:39:33 10° ESE visible
27 May 2.6 04:24:26 13° SSW 04:26:35 19° SSE 04:29:33 10° ESE visible
28 May 2.3 04:14:31 18° SSW 04:16:10 22° SSE 04:19:26 10° ESE visible
29 May 2.1 04:04:35 22° SSW 04:05:46 26° SSE 04:09:14 10° ESE visible
30 May 1.8 03:54:39 28° S 03:55:22 29° SSE 03:58:59 10° ESE visible
31 May 1.6 03:44:43 32° S 03:44:58 33° S 03:48:42 10° ESE visible
01 Jun 1.5 03:34:49 35° SSE 03:34:49 35° SSE 03:38:24 10° ESE visible
02 Jun 1.7 03:24:59 34° SSE 03:24:59 34° SSE 03:28:04 10° ESE visible
03 Jun 2.0 03:15:13 30° SE 03:15:13 30° SE 03:17:43 10° ESE visible
03 Jun 1.6 04:51:01 10° WSW 04:54:44 32° S 04:58:26 10° SE visible
